Data No.,UTC Date,UTC Time,Latitude,Longitude,Course(deg),Temp(degC),Sal(psu)
21,2014/11/2,3:03:00,34-24.3100N,137-03.0100E,171,21.178,34.0903
22,2014/11/2,3:04:00,34-24.1000N,137-03.0400E,172,21.18,34.0944
23,2014/11/2,3:05:00,34-23.8900N,137-03.0700E,172,21.124,34.1098
24,2014/11/2,3:06:00,34-23.6900N,137-03.1100E,171,21.099,34.1181
25,2014/11/2,3:07:00,34-23.4800N,137-03.1500E,171,21.09,34.1261
26,2014/11/2,3:08:00,34-23.2700N,137-03.1800E,172,21.109,34.1318
27,2014/11/2,3:09:00,34-23.0600N,137-03.2200E,172,21.124,34.1303
28,2014/11/2,3:10:00,34-22.8500N,137-03.2500E,172,21.16,34.1269
29,2014/11/2,3:11:00,34-22.6500N,137-03.2800E,172,21.218,34.1265
30,2014/11/2,3:12:00,34-22.4400N,137-03.3200E,171,21.223,34.1321
31,2014/11/2,3:13:00,34-22.2300N,137-03.3500E,171,21.195,34.1355
32,2014/11/2,3:14:00,34-22.0200N,137-03.3900E,172,21.19,34.1371
33,2014/11/2,3:15:00,34-21.8100N,137-03.4200E,171,21.196,34.1384
34,2014/11/2,3:16:00,34-21.6000N,137-03.4400E,177,21.221,34.1396
35,2014/11/2,3:17:00,34-21.4000N,137-03.4500E,176,21.248,34.1427
36,2014/11/2,3:18:00,34-21.1800N,137-03.4600E,178,21.238,34.1524
37,2014/11/2,3:19:00,34-20.9500N,137-03.4600E,180,21.272,34.156
38,2014/11/2,3:20:00,34-20.7400N,137-03.4500E,181,21.327,34.1586
39,2014/11/2,3:21:00,34-20.5300N,137-03.4400E,181,21.482,34.1626
40,2014/11/2,3:22:00,34-20.3200N,137-03.4300E,181,21.597,34.1772
41,2014/11/2,3:23:00,34-20.1100N,137-03.4200E,182,21.638,34.183
42,2014/11/2,3:24:00,34-19.9000N,137-03.4200E,182,21.652,34.1722
43,2014/11/2,3:25:00,34-19.6900N,137-03.4100E,182,21.693,34.1678
44,2014/11/2,3:26:00,34-19.4800N,137-03.4000E,181,21.741,34.1635
45,2014/11/2,3:27:00,34-19.2700N,137-03.3800E,182,21.764,34.1587
46,2014/11/2,3:28:00,34-19.0600N,137-03.3700E,182,21.777,34.1562
47,2014/11/2,3:29:00,34-18.8500N,137-03.3600E,183,21.811,34.1577
48,2014/11/2,3:30:00,34-18.6500N,137-03.3400E,187,21.838,34.1645
49,2014/11/2,3:31:00,34-18.4400N,137-03.2900E,191,21.847,34.169
50,2014/11/2,3:32:00,34-18.2400N,137-03.2400E,192,21.861,34.1724
51,2014/11/2,3:33:00,34-18.0300N,137-03.1800E,192,21.921,34.1747
52,2014/11/2,3:34:00,34-17.8300N,137-03.1300E,194,21.949,34.1814
53,2014/11/2,3:35:00,34-17.6300N,137-03.0700E,189,21.922,34.1938
54,2014/11/2,3:36:00,34-17.4200N,137-03.0400E,188,21.911,34.1974
55,2014/11/2,3:37:00,34-17.2200N,137-03.0000E,187,21.899,34.198
56,2014/11/2,3:38:00,34-17.0200N,137-02.9700E,188,21.894,34.1967
57,2014/11/2,3:39:00,34-16.8100N,137-02.9300E,187,21.885,34.1972
58,2014/11/2,3:40:00,34-16.6000N,137-02.9000E,187,21.878,34.1955
59,2014/11/2,3:41:00,34-16.4000N,137-02.8600E,187,21.886,34.1947
60,2014/11/2,3:42:00,34-16.1700N,137-02.8300E,188,21.868,34.1934
61,2014/11/2,3:43:00,34-15.9700N,137-02.7900E,187,21.848,34.1932
62,2014/11/2,3:44:00,34-15.7600N,137-02.7600E,188,21.838,34.195
63,2014/11/2,3:45:00,34-15.5500N,137-02.7100E,191,21.819,34.1957
64,2014/11/2,3:46:00,34-15.3500N,137-02.6600E,189,21.818,34.1925
65,2014/11/2,3:47:00,34-15.1400N,137-02.6100E,191,21.81,34.1941
66,2014/11/2,3:48:00,34-14.9400N,137-02.5500E,194,21.818,34.1929
67,2014/11/2,3:49:00,34-14.7300N,137-02.4800E,198,21.82,34.1839
68,2014/11/2,3:50:00,34-14.5300N,137-02.4000E,198,21.822,34.1777
69,2014/11/2,3:51:00,34-14.3300N,137-02.3100E,199,21.831,34.1781
70,2014/11/2,3:52:00,34-14.1300N,137-02.2300E,198,21.9,34.1857
71,2014/11/2,3:53:00,34-13.9300N,137-02.1500E,199,21.914,34.1808
72,2014/11/2,3:54:00,34-13.7300N,137-02.0700E,198,21.945,34.1793
73,2014/11/2,3:55:00,34-13.5300N,137-01.9900E,198,21.991,34.1835
74,2014/11/2,3:56:00,34-13.3300N,137-01.9000E,198,21.99,34.1813
75,2014/11/2,3:57:00,34-13.1300N,137-01.8200E,199,21.989,34.1681
76,2014/11/2,3:58:00,34-12.9300N,137-01.7400E,199,21.989,34.1588
77,2014/11/2,3:59:00,34-12.7300N,137-01.6600E,197,22.042,34.1522
78,2014/11/2,4:00:00,34-12.5300N,137-01.6000E,191,22.061,34.1408
79,2014/11/2,4:01:00,34-12.3300N,137-01.5600E,191,22.063,34.1288
80,2014/11/2,4:02:00,34-12.1300N,137-01.5000E,195,22.073,34.1219
81,2014/11/2,4:03:00,34-11.9300N,137-01.4400E,193,22.092,34.1201
82,2014/11/2,4:04:00,34-11.7300N,137-01.3700E,196,22.113,34.1184
83,2014/11/2,4:05:00,34-11.5100N,137-01.3000E,194,22.115,34.1206
84,2014/11/2,4:06:00,34-11.3100N,137-01.2300E,194,22.113,34.1212
85,2014/11/2,4:07:00,34-11.1200N,137-01.1700E,195,22.108,34.1146
86,2014/11/2,4:08:00,34-10.9100N,137-01.1000E,195,22.101,34.1155
87,2014/11/2,4:09:00,34-10.7100N,137-01.0300E,195,22.082,34.1137
88,2014/11/2,4:10:00,34-10.5100N,137-00.9700E,194,22.083,34.1111
89,2014/11/2,4:11:00,34-10.3100N,137-00.9200E,189,22.095,34.1124
90,2014/11/2,4:12:00,34-10.1100N,137-00.9000E,182,22.088,34.1197
91,2014/11/2,4:13:00,34-09.9000N,137-00.9000E,179,22.079,34.127
92,2014/11/2,4:14:00,34-09.7000N,137-00.9000E,180,22.037,34.1318
93,2014/11/2,4:15:00,34-09.5000N,137-00.9000E,178,22.005,34.1369
94,2014/11/2,4:16:00,34-09.2900N,137-00.9200E,176,21.973,34.1312
95,2014/11/2,4:17:00,34-09.0900N,137-00.9300E,176,21.951,34.1284
96,2014/11/2,4:18:00,34-08.8900N,137-00.9500E,176,21.911,34.1303
97,2014/11/2,4:19:00,34-08.6700N,137-00.9600E,175,21.779,34.1395
98,2014/11/2,4:20:00,34-08.4700N,137-00.9800E,176,21.636,34.1326
99,2014/11/2,4:21:00,34-08.2600N,137-01.0000E,176,21.359,34.1168
100,2014/11/2,4:22:00,34-08.0500N,137-01.0200E,175,21.255,34.1043
101,2014/11/2,4:23:00,34-07.8400N,137-01.0300E,178,21.209,34.1138
102,2014/11/2,4:24:00,34-07.6300N,137-01.0300E,178,21.156,34.1231
103,2014/11/2,4:25:00,34-07.4200N,137-01.0400E,177,21.137,34.1162
104,2014/11/2,4:26:00,34-07.2000N,137-01.0500E,177,21.162,34.1123
105,2014/11/2,4:27:00,34-06.9900N,137-01.0600E,177,21.172,34.1149
106,2014/11/2,4:28:00,34-06.7700N,137-01.0700E,177,21.23,34.1147
107,2014/11/2,4:29:00,34-06.5500N,137-01.0900E,177,21.257,34.1218
108,2014/11/2,4:30:00,34-06.3400N,137-01.1000E,178,21.239,34.1306
109,2014/11/2,4:31:00,34-06.1400N,137-01.1100E,177,21.211,34.1357
110,2014/11/2,4:32:00,34-05.9200N,137-01.1200E,177,21.167,34.1353
111,2014/11/2,4:33:00,34-05.7000N,137-01.1200E,178,21.131,34.1338
112,2014/11/2,4:34:00,34-05.4900N,137-01.1300E,178,21.1,34.1364
113,2014/11/2,4:35:00,34-05.2800N,137-01.1400E,178,21.065,34.1347
114,2014/11/2,4:36:00,34-05.0600N,137-01.1400E,178,21.028,34.1397
115,2014/11/2,4:37:00,34-04.8400N,137-01.1500E,178,20.987,34.142
116,2014/11/2,4:38:00,34-04.6300N,137-01.1600E,178,20.957,34.1412
117,2014/11/2,4:39:00,34-04.4100N,137-01.1700E,178,20.928,34.1441
118,2014/11/2,4:40:00,34-04.1900N,137-01.1700E,178,20.889,34.1492
119,2014/11/2,4:41:00,34-03.9800N,137-01.1800E,178,20.853,34.151
120,2014/11/2,4:42:00,34-03.7600N,137-01.1900E,178,20.842,34.1528
121,2014/11/2,4:43:00,34-03.5400N,137-01.1900E,178,20.813,34.1596
122,2014/11/2,4:44:00,34-03.3300N,137-01.2000E,178,20.79,34.1633
123,2014/11/2,4:45:00,34-03.1100N,137-01.2000E,178,20.768,34.1679
124,2014/11/2,4:46:00,34-02.8900N,137-01.2100E,178,20.757,34.1737
125,2014/11/2,4:47:00,34-02.6800N,137-01.2200E,178,20.741,34.1777
126,2014/11/2,4:48:00,34-02.4700N,137-01.2200E,178,20.744,34.1755
127,2014/11/2,4:49:00,34-02.2500N,137-01.2300E,178,20.744,34.174
128,2014/11/2,4:50:00,34-02.0200N,137-01.2300E,179,20.74,34.1736
129,2014/11/2,4:51:00,34-01.8100N,137-01.2400E,178,20.78,34.1676
130,2014/11/2,4:52:00,34-01.5900N,137-01.2500E,178,20.798,34.1604
131,2014/11/2,4:53:00,34-01.3800N,137-01.2500E,178,20.782,34.1511
132,2014/11/2,4:54:00,34-01.1700N,137-01.2600E,178,20.766,34.1522
133,2014/11/2,4:55:00,34-00.9500N,137-01.2700E,178,20.776,34.1527
134,2014/11/2,4:56:00,34-00.7400N,137-01.2700E,178,20.802,34.1457
135,2014/11/2,4:57:00,34-00.5300N,137-01.2800E,176,20.845,34.1369
136,2014/11/2,4:58:00,34-00.3200N,137-01.3000E,177,20.891,34.1138
137,2014/11/2,4:59:00,34-00.1000N,137-01.3100E,177,20.933,34.064
138,2014/11/2,5:00:00,33-59.9000N,137-01.3200E,177,20.917,34.0211
139,2014/11/2,5:01:00,33-59.6900N,137-01.3300E,176,20.943,34.0079
140,2014/11/2,5:02:00,33-59.4800N,137-01.3400E,182,20.946,33.9942
141,2014/11/2,5:03:00,33-59.2700N,137-01.3200E,187,20.996,33.9889
142,2014/11/2,5:04:00,33-59.0800N,137-01.2600E,192,21.02,33.968
143,2014/11/2,5:05:00,33-58.8700N,137-01.1900E,198,21.015,33.9486
144,2014/11/2,5:06:00,33-58.6800N,137-01.1000E,201,21.005,33.9405
145,2014/11/2,5:07:00,33-58.4900N,137-01.0100E,200,20.971,33.9371
146,2014/11/2,5:08:00,33-58.2900N,137-00.9200E,200,20.932,33.9408
147,2014/11/2,5:09:00,33-58.0900N,137-00.8300E,200,20.912,33.9577
148,2014/11/2,5:10:00,33-57.8900N,137-00.7400E,200,20.886,33.972
149,2014/11/2,5:11:00,33-57.6900N,137-00.6400E,201,20.856,33.9746
150,2014/11/2,5:12:00,33-57.4900N,137-00.5500E,200,20.836,33.9788
151,2014/11/2,5:13:00,33-57.2700N,137-00.4500E,200,20.816,33.987
152,2014/11/2,5:14:00,33-57.0700N,137-00.3600E,201,20.805,34.0001
153,2014/11/2,5:15:00,33-56.8700N,137-00.2700E,201,20.783,34.0156
154,2014/11/2,5:16:00,33-56.6600N,137-00.1700E,201,20.767,34.03
155,2014/11/2,5:17:00,33-56.4700N,137-00.0700E,201,20.737,34.0388
156,2014/11/2,5:18:00,33-56.2600N,136-59.9800E,201,20.7,34.046
157,2014/11/2,5:19:00,33-56.0600N,136-59.8800E,202,20.661,34.0754
158,2014/11/2,5:20:00,33-55.8600N,136-59.7900E,200,20.638,34.1377
159,2014/11/2,5:21:00,33-55.6500N,136-59.7000E,200,20.628,34.171
160,2014/11/2,5:22:00,33-55.4500N,136-59.6100E,198,20.599,34.1863
161,2014/11/2,5:23:00,33-55.2500N,136-59.5000E,207,20.561,34.1977
162,2014/11/2,5:24:00,33-55.0600N,136-59.3800E,208,20.532,34.2033
163,2014/11/2,5:25:00,33-54.8700N,136-59.2500E,207,20.566,34.2073
164,2014/11/2,5:26:00,33-54.6800N,136-59.1400E,207,20.57,34.2048
165,2014/11/2,5:27:00,33-54.4800N,136-59.0200E,206,20.561,34.2048
166,2014/11/2,5:28:00,33-54.2900N,136-58.9000E,205,20.612,34.2025
167,2014/11/2,5:29:00,33-54.0900N,136-58.7800E,208,20.581,34.1892
168,2014/11/2,5:30:00,33-53.9100N,136-58.6500E,211,20.552,34.1883
169,2014/11/2,5:31:00,33-53.7200N,136-58.5100E,213,20.629,34.1934
170,2014/11/2,5:32:00,33-53.5400N,136-58.3600E,214,20.677,34.1956
171,2014/11/2,5:33:00,33-53.3600N,136-58.2100E,213,20.697,34.1843
172,2014/11/2,5:34:00,33-53.1800N,136-58.0700E,213,20.692,34.1828
173,2014/11/2,5:35:00,33-53.0000N,136-57.9200E,214,20.694,34.1846
174,2014/11/2,5:36:00,33-52.8000N,136-57.7700E,213,20.68,34.1862
175,2014/11/2,5:37:00,33-52.6200N,136-57.6300E,212,20.667,34.1877
176,2014/11/2,5:38:00,33-52.4500N,136-57.4900E,212,20.659,34.1838
177,2014/11/2,5:39:00,33-52.2700N,136-57.3500E,212,20.656,34.1824
178,2014/11/2,5:40:00,33-52.0800N,136-57.2100E,212,20.663,34.1827
179,2014/11/2,5:41:00,33-51.9000N,136-57.0800E,211,20.698,34.1745
180,2014/11/2,5:42:00,33-51.7200N,136-56.9400E,211,20.698,34.1588
181,2014/11/2,5:43:00,33-51.5400N,136-56.8200E,211,20.739,34.1051
182,2014/11/2,5:44:00,33-51.3600N,136-56.6800E,210,20.727,34.1147
183,2014/11/2,5:45:00,33-51.1800N,136-56.5600E,210,20.742,34.107
184,2014/11/2,5:46:00,33-50.9900N,136-56.4300E,208,20.797,34.0871
185,2014/11/2,5:47:00,33-50.8100N,136-56.3100E,207,20.876,34.0601
186,2014/11/2,5:48:00,33-50.6200N,136-56.2000E,208,20.914,33.9652
187,2014/11/2,5:49:00,33-50.4400N,136-56.0700E,211,20.926,33.8513
188,2014/11/2,5:50:00,33-50.2600N,136-55.9400E,209,20.936,33.7796
189,2014/11/2,5:51:00,33-50.0800N,136-55.8200E,209,20.938,33.7334
190,2014/11/2,5:52:00,33-49.9000N,136-55.6900E,211,20.925,33.7063
191,2014/11/2,5:53:00,33-49.7200N,136-55.5700E,210,20.934,33.7039
192,2014/11/2,5:54:00,33-49.5400N,136-55.4400E,210,20.944,33.7003
193,2014/11/2,5:55:00,33-49.3600N,136-55.3100E,211,20.946,33.6901
194,2014/11/2,5:56:00,33-49.1800N,136-55.1700E,212,20.934,33.6864
195,2014/11/2,5:57:00,33-49.0000N,136-55.0400E,211,20.94,33.6901
196,2014/11/2,5:58:00,33-48.8200N,136-54.9000E,212,20.924,33.6905
197,2014/11/2,5:59:00,33-48.6500N,136-54.7700E,213,20.945,33.7027
198,2014/11/2,6:00:00,33-48.4600N,136-54.6200E,212,20.993,33.7044
199,2014/11/2,6:01:00,33-48.2700N,136-54.4800E,211,21.033,33.6784
200,2014/11/2,6:02:00,33-48.1000N,136-54.3500E,213,20.981,33.6856
201,2014/11/2,6:03:00,33-47.9200N,136-54.2000E,215,21.002,33.7083
202,2014/11/2,6:04:00,33-47.7500N,136-54.0600E,214,21.081,33.7236
203,2014/11/2,6:05:00,33-47.5700N,136-53.9200E,213,21.134,33.6929
204,2014/11/2,6:06:00,33-47.4000N,136-53.7700E,214,21.103,33.6838
205,2014/11/2,6:07:00,33-47.2200N,136-53.6200E,214,21.116,33.6965
206,2014/11/2,6:08:00,33-47.0500N,136-53.4800E,214,21.151,33.6928
207,2014/11/2,6:09:00,33-46.8800N,136-53.3400E,214,21.143,33.6841
208,2014/11/2,6:10:00,33-46.7000N,136-53.1900E,215,21.136,33.6799
209,2014/11/2,6:11:00,33-46.5400N,136-53.0500E,213,21.138,33.6754
210,2014/11/2,6:12:00,33-46.3600N,136-52.9100E,212,21.158,33.6789
211,2014/11/2,6:13:00,33-46.1800N,136-52.7800E,213,21.168,33.6871
212,2014/11/2,6:14:00,33-46.0000N,136-52.6300E,213,21.164,33.6925
213,2014/11/2,6:15:00,33-45.8300N,136-52.5000E,213,21.159,33.6931
214,2014/11/2,6:16:00,33-45.6500N,136-52.3500E,213,21.159,33.6701
215,2014/11/2,6:17:00,33-45.4700N,136-52.2200E,213,21.173,33.687
216,2014/11/2,6:18:00,33-45.3000N,136-52.0700E,214,21.182,33.6904
217,2014/11/2,6:19:00,33-45.1200N,136-51.9300E,213,21.218,33.7025
218,2014/11/2,6:20:00,33-44.9400N,136-51.7900E,213,21.227,33.7095
219,2014/11/2,6:21:00,33-44.7600N,136-51.6500E,213,21.273,33.7104
220,2014/11/2,6:22:00,33-44.5800N,136-51.5000E,213,21.341,33.7168
221,2014/11/2,6:23:00,33-44.4000N,136-51.3600E,212,21.354,33.7354
222,2014/11/2,6:24:00,33-44.2200N,136-51.2200E,213,21.336,33.7439
223,2014/11/2,6:25:00,33-44.0500N,136-51.0800E,214,21.308,33.7397
224,2014/11/2,6:26:00,33-43.8800N,136-50.9400E,214,21.262,33.7449
225,2014/11/2,6:27:00,33-43.7000N,136-50.8000E,212,21.269,33.7382
226,2014/11/2,6:28:00,33-43.5200N,136-50.6700E,210,21.335,33.7307
227,2014/11/2,6:29:00,33-43.3400N,136-50.5400E,211,21.354,33.7302
228,2014/11/2,6:30:00,33-43.1600N,136-50.4100E,211,21.342,33.7218
229,2014/11/2,6:31:00,33-42.9800N,136-50.2800E,211,21.276,33.7003
230,2014/11/2,6:32:00,33-42.8000N,136-50.1500E,211,21.249,33.6118
231,2014/11/2,6:33:00,33-42.6200N,136-50.0200E,211,21.238,33.5733
232,2014/11/2,6:34:00,33-42.4500N,136-49.8800E,211,21.224,33.5648
233,2014/11/2,6:35:00,33-42.2700N,136-49.7500E,212,21.211,33.5669
234,2014/11/2,6:36:00,33-42.0900N,136-49.6100E,212,21.247,33.567
235,2014/11/2,6:37:00,33-41.9200N,136-49.4800E,212,21.263,33.5924
236,2014/11/2,6:38:00,33-41.7400N,136-49.3400E,212,21.279,33.6233
237,2014/11/2,6:39:00,33-41.5700N,136-49.2100E,212,21.288,33.6488
238,2014/11/2,6:40:00,33-41.3900N,136-49.0700E,213,21.262,33.6466
239,2014/11/2,6:41:00,33-41.2100N,136-48.9400E,213,21.259,33.6599
240,2014/11/2,6:42:00,33-41.0300N,136-48.7900E,213,21.268,33.6716
241,2014/11/2,6:43:00,33-40.8600N,136-48.6600E,213,21.314,33.6815
242,2014/11/2,6:44:00,33-40.6800N,136-48.5200E,213,21.491,33.6958
243,2014/11/2,6:45:00,33-40.4900N,136-48.3800E,213,21.676,33.7413
244,2014/11/2,6:46:00,33-40.3200N,136-48.2400E,214,21.775,33.7979
245,2014/11/2,6:47:00,33-40.1500N,136-48.1000E,214,21.823,33.8479
246,2014/11/2,6:48:00,33-39.9900N,136-47.9700E,212,21.877,33.8917
247,2014/11/2,6:49:00,33-39.8100N,136-47.8300E,214,21.915,33.9239
248,2014/11/2,6:50:00,33-39.6400N,136-47.6900E,213,21.952,33.9454
249,2014/11/2,6:51:00,33-39.4700N,136-47.5500E,212,21.977,33.9457
250,2014/11/2,6:52:00,33-39.3000N,136-47.4200E,213,22.019,33.9634
251,2014/11/2,6:53:00,33-39.1300N,136-47.2900E,213,22.122,34.0058
252,2014/11/2,6:54:00,33-38.9600N,136-47.1500E,213,22.177,34.0705
253,2014/11/2,6:55:00,33-38.7900N,136-47.0100E,213,22.18,34.11
254,2014/11/2,6:56:00,33-38.6100N,136-46.8700E,214,22.219,34.1317
255,2014/11/2,6:57:00,33-38.4400N,136-46.7300E,213,22.217,34.148
256,2014/11/2,6:58:00,33-38.2700N,136-46.6000E,213,22.163,34.1653
257,2014/11/2,6:59:00,33-38.1000N,136-46.4600E,214,22.132,34.1797
258,2014/11/2,7:00:00,33-37.9200N,136-46.3200E,213,22.117,34.2014
259,2014/11/2,7:01:00,33-37.7500N,136-46.1900E,212,22.119,34.2047
260,2014/11/2,7:02:00,33-37.5800N,136-46.0600E,213,22.142,34.2122
261,2014/11/2,7:03:00,33-37.4100N,136-45.9200E,212,22.177,34.2178
262,2014/11/2,7:04:00,33-37.2400N,136-45.8000E,211,22.415,34.2265
263,2014/11/2,7:05:00,33-37.0700N,136-45.6700E,211,22.502,34.257
264,2014/11/2,7:06:00,33-36.8900N,136-45.5500E,209,22.171,34.2817
265,2014/11/2,7:07:00,33-36.7100N,136-45.4300E,209,21.899,34.1448
266,2014/11/2,7:08:00,33-36.5400N,136-45.3200E,208,21.778,33.9999
267,2014/11/2,7:09:00,33-36.3700N,136-45.2000E,209,21.662,33.9197
268,2014/11/2,7:10:00,33-36.1900N,136-45.0800E,210,21.606,33.8855
269,2014/11/2,7:11:00,33-36.0200N,136-44.9600E,210,21.598,33.8809
270,2014/11/2,7:12:00,33-35.8500N,136-44.8500E,209,21.414,33.8896
271,2014/11/2,7:13:00,33-35.6800N,136-44.7400E,207,21.13,33.8984
272,2014/11/2,7:14:00,33-35.5100N,136-44.6400E,206,20.999,33.7472
273,2014/11/2,7:15:00,33-35.3400N,136-44.5300E,206,20.891,33.6598
274,2014/11/2,7:16:00,33-35.1700N,136-44.4300E,204,20.88,33.6072
275,2014/11/2,7:17:00,33-34.9900N,136-44.3400E,201,21.863,33.5461
276,2014/11/2,7:18:00,33-34.8100N,136-44.2600E,200,22.777,33.6917
277,2014/11/2,7:19:00,33-34.6400N,136-44.1800E,201,23.358,33.914
278,2014/11/2,7:20:00,33-34.4700N,136-44.1000E,200,23.756,34.0525
279,2014/11/2,7:21:00,33-34.3000N,136-44.0300E,199,24.117,34.1517
280,2014/11/2,7:22:00,33-34.1300N,136-43.9600E,198,24.345,34.2338
281,2014/11/2,7:23:00,33-33.9500N,136-43.8900E,197,24.34,34.2933
282,2014/11/2,7:24:00,33-33.7800N,136-43.8300E,197,24.523,34.3156
283,2014/11/2,7:25:00,33-33.6100N,136-43.7600E,198,24.577,34.3405
284,2014/11/2,7:26:00,33-33.4500N,136-43.7000E,198,24.603,34.3357
285,2014/11/2,7:27:00,33-33.2800N,136-43.6300E,197,24.619,34.3205
286,2014/11/2,7:28:00,33-33.1200N,136-43.5700E,196,24.615,34.3269
287,2014/11/2,7:29:00,33-32.9500N,136-43.5100E,198,24.61,34.3127
288,2014/11/2,7:30:00,33-32.7700N,136-43.4400E,196,24.614,34.2996
289,2014/11/2,7:31:00,33-32.6100N,136-43.3800E,200,24.612,34.2975
290,2014/11/2,7:32:00,33-32.4500N,136-43.3000E,204,24.616,34.2903
291,2014/11/2,7:33:00,33-32.3000N,136-43.2200E,203,24.624,34.2905
292,2014/11/2,7:34:00,33-32.1500N,136-43.1500E,203,24.632,34.2931
293,2014/11/2,7:35:00,33-32.0100N,136-43.0500E,209,24.627,34.2997
294,2014/11/2,7:36:00,33-31.8700N,136-42.9600E,208,24.636,34.2943
295,2014/11/2,7:37:00,33-31.7300N,136-42.8700E,207,24.64,34.2969
296,2014/11/2,7:38:00,33-31.5900N,136-42.7800E,209,24.636,34.2997
297,2014/11/2,7:39:00,33-31.4500N,136-42.6900E,209,24.634,34.2956
298,2014/11/2,7:40:00,33-31.3100N,136-42.6000E,208,24.652,34.2921
299,2014/11/2,7:41:00,33-31.1700N,136-42.5100E,207,24.655,34.2994
300,2014/11/2,7:42:00,33-31.0300N,136-42.4200E,209,24.67,34.3052
301,2014/11/2,7:43:00,33-30.9000N,136-42.3200E,214,24.689,34.3087
302,2014/11/2,7:44:00,33-30.7700N,136-42.2200E,211,24.696,34.3188
303,2014/11/2,7:45:00,33-30.6400N,136-42.1200E,212,24.699,34.3226
304,2014/11/2,7:46:00,33-30.5100N,136-42.0200E,212,24.707,34.3195
305,2014/11/2,7:47:00,33-30.3700N,136-41.9200E,211,24.719,34.3196
306,2014/11/2,7:48:00,33-30.2400N,136-41.8200E,211,24.723,34.3272
307,2014/11/2,7:49:00,33-30.1100N,136-41.7200E,213,24.733,34.3321
308,2014/11/2,7:50:00,33-29.9800N,136-41.6200E,212,24.743,34.3377
309,2014/11/2,7:51:00,33-29.8400N,136-41.5200E,213,24.766,34.3442
310,2014/11/2,7:52:00,33-29.7000N,136-41.4100E,214,24.788,34.3613
311,2014/11/2,7:53:00,33-29.5700N,136-41.3000E,212,24.799,34.3811
312,2014/11/2,7:54:00,33-29.4400N,136-41.2000E,214,24.807,34.392
313,2014/11/2,7:55:00,33-29.3100N,136-41.1000E,213,24.806,34.4022
314,2014/11/2,7:56:00,33-29.1700N,136-40.9900E,213,24.801,34.4034
315,2014/11/2,7:57:00,33-29.0400N,136-40.8900E,213,24.809,34.3986
316,2014/11/2,7:58:00,33-28.9100N,136-40.7900E,213,24.804,34.4042
317,2014/11/2,7:59:00,33-28.7800N,136-40.6900E,212,24.786,34.41
318,2014/11/2,8:00:00,33-28.6400N,136-40.5800E,213,24.776,34.4082
319,2014/11/2,8:01:00,33-28.5100N,136-40.4800E,213,24.77,34.401
320,2014/11/2,8:02:00,33-28.3800N,136-40.3800E,212,24.767,34.3949
321,2014/11/2,8:03:00,33-28.2500N,136-40.2800E,212,24.761,34.3968
322,2014/11/2,8:04:00,33-28.1200N,136-40.1700E,213,24.773,34.4087
323,2014/11/2,8:05:00,33-27.9800N,136-40.0600E,214,24.793,34.4361
324,2014/11/2,8:06:00,33-27.8600N,136-39.9600E,214,24.82,34.4708
325,2014/11/2,8:07:00,33-27.7300N,136-39.8500E,214,24.84,34.5022
326,2014/11/2,8:08:00,33-27.6000N,136-39.7500E,214,24.873,34.5197
327,2014/11/2,8:09:00,33-27.4700N,136-39.6400E,213,24.863,34.5466
328,2014/11/2,8:10:00,33-27.3400N,136-39.5400E,214,24.874,34.5452
329,2014/11/2,8:11:00,33-27.2100N,136-39.4400E,213,24.893,34.5468
330,2014/11/2,8:12:00,33-27.0800N,136-39.3300E,214,24.926,34.5617
331,2014/11/2,8:13:00,33-26.9500N,136-39.2300E,214,25.006,34.585
332,2014/11/2,8:14:00,33-26.8200N,136-39.1200E,214,25.037,34.6394
333,2014/11/2,8:15:00,33-26.6900N,136-39.0200E,215,25.051,34.6602
334,2014/11/2,8:16:00,33-26.5600N,136-38.9000E,215,25.052,34.6682
335,2014/11/2,8:17:00,33-26.4300N,136-38.7900E,216,25.037,34.6702
336,2014/11/2,8:18:00,33-26.3000N,136-38.6900E,215,25.031,34.6676
337,2014/11/2,8:19:00,33-26.1800N,136-38.5800E,215,25.071,34.6657
338,2014/11/2,8:20:00,33-26.0500N,136-38.4800E,215,25.099,34.6723
339,2014/11/2,8:21:00,33-25.9200N,136-38.3700E,214,25.094,34.685
340,2014/11/2,8:22:00,33-25.8000N,136-38.2600E,215,25.083,34.6866
341,2014/11/2,8:23:00,33-25.6700N,136-38.1600E,215,25.075,34.6878
342,2014/11/2,8:24:00,33-25.5500N,136-38.0500E,216,25.062,34.6863
343,2014/11/2,8:25:00,33-25.4200N,136-37.9400E,216,25.043,34.6814
344,2014/11/2,8:26:00,33-25.3000N,136-37.8300E,216,25.023,34.6753
345,2014/11/2,8:27:00,33-25.1700N,136-37.7200E,215,24.996,34.6703
346,2014/11/2,8:28:00,33-25.0500N,136-37.6200E,215,24.973,34.6661
347,2014/11/2,8:29:00,33-24.9200N,136-37.5100E,215,24.95,34.6613
348,2014/11/2,8:30:00,33-24.8000N,136-37.4000E,215,24.928,34.6572
349,2014/11/2,8:31:00,33-24.6700N,136-37.2900E,216,24.911,34.6509
350,2014/11/2,8:32:00,33-24.5400N,136-37.1700E,216,24.885,34.6458
351,2014/11/2,8:33:00,33-24.4200N,136-37.0700E,215,24.865,34.6392
352,2014/11/2,8:34:00,33-24.2900N,136-36.9600E,216,24.843,34.6304
353,2014/11/2,8:35:00,33-24.1700N,136-36.8500E,215,24.833,34.6206
354,2014/11/2,8:36:00,33-24.0400N,136-36.7400E,215,24.816,34.6143
355,2014/11/2,8:37:00,33-23.9100N,136-36.6400E,216,24.801,34.6099
356,2014/11/2,8:38:00,33-23.7800N,136-36.5200E,216,24.789,34.606
357,2014/11/2,8:39:00,33-23.6400N,136-36.4100E,215,24.777,34.6014
358,2014/11/2,8:40:00,33-23.5100N,136-36.3000E,215,24.757,34.5953
359,2014/11/2,8:41:00,33-23.3800N,136-36.1900E,214,24.75,34.5918
360,2014/11/2,8:42:00,33-23.2600N,136-36.0800E,214,24.742,34.592
361,2014/11/2,8:43:00,33-23.1300N,136-35.9700E,214,24.736,34.5949
362,2014/11/2,8:44:00,33-23.0000N,136-35.8700E,215,24.732,34.5987
363,2014/11/2,8:45:00,33-22.8700N,136-35.7600E,215,24.73,34.6002
364,2014/11/2,8:46:00,33-22.7400N,136-35.6500E,215,24.724,34.6025
365,2014/11/2,8:47:00,33-22.6100N,136-35.5300E,216,24.712,34.6056
366,2014/11/2,8:48:00,33-22.4900N,136-35.4300E,215,24.695,34.6038
367,2014/11/2,8:49:00,33-22.3600N,136-35.3200E,215,24.715,34.6002
368,2014/11/2,8:50:00,33-22.2300N,136-35.2100E,215,24.654,34.6105
369,2014/11/2,8:51:00,33-22.1000N,136-35.1000E,216,24.602,34.6127
370,2014/11/2,8:52:00,33-21.9700N,136-34.9900E,215,24.582,34.5902
371,2014/11/2,8:53:00,33-21.8500N,136-34.8800E,215,24.603,34.5809
372,2014/11/2,8:54:00,33-21.7200N,136-34.7800E,215,24.623,34.5841
373,2014/11/2,8:55:00,33-21.5900N,136-34.6700E,216,24.653,34.5907
374,2014/11/2,8:56:00,33-21.4700N,136-34.5600E,215,24.693,34.5985
375,2014/11/2,8:57:00,33-21.3400N,136-34.4600E,215,24.738,34.6116
376,2014/11/2,8:58:00,33-21.2200N,136-34.3600E,215,24.765,34.6232
377,2014/11/2,8:59:00,33-21.0900N,136-34.2500E,213,24.798,34.6333
378,2014/11/2,9:00:00,33-20.9600N,136-34.1400E,215,24.813,34.64
379,2014/11/2,9:01:00,33-20.8300N,136-34.0400E,216,24.816,34.644